Simultaneous Nadir Overpasses (SNOs) Predictions

Prediction of SNOs between METOP-B and TERRA Satellite Orbit:

Table of predicted SNOs for the next 14.0 days since TLE Epoch: 2/27/2016
Index Date (METOP-B) Time (METOP-B) Lat,Lon (METOP-B) SZA (METOP-B ) Date (TERRA) Time (TERRA) Lat,Lon (TERRA) SZA (TERRA ) Distance(km) Time Diff (sec)
1 02/29/2016 01:25:25 81.36,-153.50 91.65 02/29/2016 01:25:38 81.36,-153.32 91.68 2.87 13
2 02/29/2016 02:16:04 -81.36, 14.44 88.30 02/29/2016 02:15:04 -81.37, 14.53 88.31 1.71 60
3 03/02/2016 20:59:44 81.36, -87.07 90.60 03/02/2016 20:59:48 81.36, -86.88 90.62 3.15 4
4 03/02/2016 21:50:23 -81.36, 80.89 89.35 03/02/2016 21:49:14 -81.37, 81.01 89.36 2.13 69
5 03/05/2016 15:43:24 -81.35, 171.66 90.50 03/05/2016 15:44:33 -81.35, 171.75 90.46 1.62 69
6 03/
